Location: Baix
(44.7118°N, 4.7648°E)
Time: 15:07:17
(UTC+00:00)

Vanguard 1 Rocket - All Passes

Search period start: 24 November 2020 00:00
Search period end: 04 December 2020 00:00
Orbit: 656 x 4221 km, 34.3° (Epoch: 23 November)

Date Brightness Start Highest point End Pass type
(mag) Time Alt. Az. Time Alt. Az. Time Alt. Az.
24 Nov - 01:36:25 10° SW 01:59:13 45° SSE 02:13:58 10° E visible
24 Nov - 04:07:23 10° WSW 04:28:09 56° S 04:39:17 10° ESE visible
24 Nov - 06:40:31 10° W 06:54:43 41° SSW 07:02:29 10° SE daylight
24 Nov - 09:15:51 10° WSW 09:18:08 11° SW 09:20:10 10° SW daylight
24 Nov - 22:05:44 10° SSE 22:16:55 15° SE 22:27:23 10° ESE visible
25 Nov - 00:23:32 10° SSW 00:45:36 38° SSE 01:01:51 10° E visible
25 Nov - 02:52:14 10° WSW 03:15:10 55° S 03:28:27 10° E visible
25 Nov - 05:25:05 10° W 05:43:09 52° SSW 05:52:39 10° ESE visible
25 Nov - 07:58:37 10° W 08:07:57 23° SW 08:13:59 10° S daylight
25 Nov - 23:12:15 10° S 23:32:02 29° SE 23:48:35 10° E visible
26 Nov - 01:37:49 10° SW 02:01:38 51° SSE 02:17:06 10° E visible
26 Nov - 04:09:30 10° WSW 04:30:48 58° S 04:42:18 10° ESE visible
26 Nov - 06:43:03 10° W 06:57:13 37° SSW 07:05:11 10° SSE daylight
26 Nov - 22:03:19 10° S 22:18:47 20° SE 22:33:12 10° E visible
27 Nov - 00:24:31 10° SW 00:47:48 44° SSE 01:05:06 10° E visible
27 Nov - 02:54:08 10° WSW 03:17:44 59° S 03:31:29 10° ESE visible
27 Nov - 05:27:25 10° W 05:45:43 49° SSW 05:55:31 10° SE visible
27 Nov - 08:01:48 10° W 08:10:12 19° SW 08:15:58 10° S daylight
27 Nov - 21:01:20 10° SE 21:06:05 11° SE 21:10:49 10° ESE night (unlit)
27 Nov - 23:12:39 10° SSW 23:34:01 35° SE 23:52:08 10° E visible
28 Nov - 01:39:28 10° SW 02:04:02 56° SSE 02:20:09 10° E visible
28 Nov - 04:11:41 10° W 04:33:24 57° S 04:45:15 10° ESE visible
28 Nov - 06:45:38 10° W 06:59:35 33° SW 07:07:42 10° SSE daylight
28 Nov - 22:02:36 10° S 22:20:35 26° SE 22:37:37 10° E visible
29 Nov - 00:25:51 10° SW 00:50:00 49° SSE 01:08:11 10° E visible
29 Nov - 02:56:11 10° WSW 03:20:15 61° S 03:34:28 10° ESE visible
29 Nov - 05:29:46 10° W 05:48:12 46° SSW 05:58:17 10° SE visible
29 Nov - 08:05:26 10° W 08:12:18 16° SW 08:17:25 10° SSW daylight
29 Nov - 20:55:46 10° SSE 21:07:45 16° SE 21:19:53 10° E visible
29 Nov - 23:13:33 10° SSW 23:35:59 41° SSE 23:55:22 10° E visible
30 Nov - 01:41:21 10° WSW 02:06:27 59° S 02:23:07 10° E visible
30 Nov - 04:13:56 10° W 04:35:55 56° SSW 04:48:08 10° ESE visible
30 Nov - 06:48:22 10° W 07:01:47 29° SW 07:10:00 10° SSE daylight
30 Nov - 22:02:48 10° S 22:22:20 31° SE 22:41:20 10° E visible
01 Dec - 00:27:30 10° SW 00:52:13 54° SSE 01:11:10 10° E visible
01 Dec - 02:58:21 10° WSW 03:22:45 61° S 03:37:24 10° ESE visible
01 Dec - 05:32:11 10° W 05:50:31 42° SSW 06:00:54 10° SE visible
01 Dec - 08:10:11 10° WSW 08:14:16 12° WSW 08:17:43 10° SW daylight
01 Dec - 20:54:15 10° S 21:09:20 21° SE 21:25:09 10° E visible
01 Dec - 23:14:52 10° SW 23:37:57 46° SSE 23:58:25 10° E visible
02 Dec - 01:43:24 10° WSW 02:08:50 62° S 02:26:03 10° E visible
02 Dec - 04:16:14 10° W 04:38:20 53° SSW 04:50:55 10° SE visible
02 Dec - 06:51:18 10° W 07:03:51 24° SW 07:11:59 10° S daylight
02 Dec - 19:52:11 10° SE 19:57:04 11° ESE 20:02:06 10° ESE visible
02 Dec - 22:03:37 10° SSW 22:24:04 37° SE 22:44:38 10° E visible
03 Dec - 00:29:23 10° SW 00:54:25 58° SSE 01:14:04 10° E visible
03 Dec - 03:00:36 10° W 03:25:11 60° S 03:40:15 10° ESE visible
03 Dec - 05:34:40 10° W 05:52:42 37° SW 06:03:20 10° SSE visible
03 Dec - 20:54:06 10° S 21:10:54 26° SE 21:29:14 10° E visible
